Stündliche Wetter Kzyl-Mesha

Heute, 10 Mai, Montag

Zeit Temperatur Niederschläge Wind Luftdruck Luftfeuchtigkeit
00:00 +17°C° 0 mm 3 m/S 751 mmHg 69%
01:00 +16°C° 0.1 mm 3 m/S 751 mmHg 71%
02:00 +16°C° 0.1 mm 3 m/S 751 mmHg 73%
03:00 +16°C° 0 mm 3 m/S 752 mmHg 72%
04:00 +16°C° 0.1 mm 3 m/S 752 mmHg 73%
05:00 +16°C° 0.1 mm 2 m/S 752 mmHg 73%
06:00 +17°C° 0.1 mm 2 m/S 753 mmHg 74%
07:00 +18°C° 0 mm 2 m/S 753 mmHg 69%
08:00 +19°C° 0 mm 2 m/S 754 mmHg 65%
09:00 +20°C° 0 mm 2 m/S 754 mmHg 58%
10:00 +21°C° 0 mm 2 m/S 754 mmHg 53%
11:00 +24°C° 0 mm 2 m/S 755 mmHg 48%
12:00 +25°C° 0 mm 3 m/S 755 mmHg 43%
13:00 +25°C° 0 mm 2 m/S 755 mmHg 41%
14:00 +26°C° 0 mm 2 m/S 755 mmHg 40%
15:00 +26°C° 0 mm 2 m/S 755 mmHg 38%
16:00 +25°C° 0 mm 2 m/S 755 mmHg 42%
17:00 +24°C° 0 mm 1 m/S 756 mmHg 46%
18:00 +22°C° 0 mm 0 m/S 756 mmHg 50%
19:00 +22°C° 0 mm 1 m/S 756 mmHg 53%
20:00 +20°C° 0 mm 2 m/S 757 mmHg 56%
21:00 +19°C° 0 mm 2 m/S 757 mmHg 60%
22:00 +18°C° 0 mm 3 m/S 757 mmHg 64%
23:00 +17°C° 0 mm 3 m/S 757 mmHg 68%

Morgen, 11 Mai, Dienstag

Zeit Temperatur Niederschläge Wind Luftdruck Luftfeuchtigkeit
00:00 +16°C° 0 mm 3 m/S 757 mmHg 73%
01:00 +16°C° 0 mm 3 m/S 758 mmHg 73%
02:00 +14°C° 0 mm 3 m/S 758 mmHg 73%
03:00 +14°C° 0 mm 3 m/S 758 mmHg 74%
04:00 +14°C° 0 mm 3 m/S 758 mmHg 74%
05:00 +16°C° 0 mm 3 m/S 759 mmHg 75%
06:00 +16°C° 0 mm 3 m/S 759 mmHg 75%
07:00 +18°C° 0 mm 3 m/S 759 mmHg 68%
08:00 +20°C° 0 mm 3 m/S 760 mmHg 61%
09:00 +21°C° 0 mm 3 m/S 760 mmHg 55%
10:00 +24°C° 0 mm 3 m/S 760 mmHg 50%
11:00 +25°C° 0 mm 2 m/S 760 mmHg 45%
12:00 +26°C° 0 mm 2 m/S 760 mmHg 40%
13:00 +26°C° 0 mm 2 m/S 760 mmHg 38%
14:00 +26°C° 0 mm 2 m/S 760 mmHg 36%
15:00 +27°C° 0 mm 2 m/S 760 mmHg 34%
16:00 +25°C° 0 mm 2 m/S 760 mmHg 41%
17:00 +24°C° 0 mm 2 m/S 760 mmHg 47%
18:00 +23°C° 0 mm 2 m/S 760 mmHg 53%
19:00 +21°C° 0 mm 2 m/S 760 mmHg 57%
20:00 +19°C° 0 mm 2 m/S 761 mmHg 61%
21:00 +19°C° 0 mm 1 m/S 761 mmHg 64%
22:00 +18°C° 0 mm 1 m/S 761 mmHg 63%
23:00 +18°C° 0 mm 1 m/S 761 mmHg 62%

übermorgen, 12 Mai, Mittwoch

Zeit Temperatur Niederschläge Wind Luftdruck Luftfeuchtigkeit
00:00 +16°C° 0 mm 1 m/S 761 mmHg 61%
01:00 +16°C° 0 mm 2 m/S 761 mmHg 61%
02:00 +15°C° 0 mm 2 m/S 761 mmHg 60%
03:00 +15°C° 0 mm 2 m/S 761 mmHg 60%
04:00 +16°C° 0 mm 2 m/S 761 mmHg 60%
05:00 +16°C° 0 mm 2 m/S 761 mmHg 60%
06:00 +17°C° 0 mm 2 m/S 762 mmHg 61%
07:00 +19°C° 0 mm 3 m/S 762 mmHg 55%
08:00 +21°C° 0 mm 3 m/S 762 mmHg 48%
09:00 +23°C° 0 mm 4 m/S 762 mmHg 42%
10:00 +23°C° 0 mm 4 m/S 762 mmHg 39%
11:00 +25°C° 0 mm 4 m/S 761 mmHg 36%
12:00 +26°C° 0 mm 4 m/S 761 mmHg 34%
13:00 +26°C° 0 mm 4 m/S 761 mmHg 33%
14:00 +26°C° 0 mm 4 m/S 761 mmHg 32%
15:00 +26°C° 0 mm 4 m/S 761 mmHg 31%
16:00 +25°C° 0 mm 3 m/S 761 mmHg 37%
17:00 +24°C° 0 mm 2 m/S 761 mmHg 42%
18:00 +24°C° 0 mm 2 m/S 761 mmHg 47%
19:00 +21°C° 0 mm 2 m/S 761 mmHg 49%
20:00 +19°C° 0 mm 2 m/S 761 mmHg 50%
21:00 +18°C° 0 mm 2 m/S 761 mmHg 51%
22:00 +17°C° 0 mm 2 m/S 761 mmHg 54%
23:00 +18°C° 0 mm 1 m/S 761 mmHg 57%

13 Mai, Donnerstag

Zeit Temperatur Niederschläge Wind Luftdruck Luftfeuchtigkeit
00:00 +16°C° 0 mm 1 m/S 761 mmHg 61%
01:00 +16°C° 0 mm 1 m/S 761 mmHg 61%
02:00 +15°C° 0 mm 1 m/S 761 mmHg 61%
03:00 +15°C° 0 mm 1 m/S 761 mmHg 62%
04:00 +16°C° 0 mm 1 m/S 761 mmHg 61%
05:00 +18°C° 0 mm 1 m/S 761 mmHg 61%
06:00 +18°C° 0 mm 2 m/S 761 mmHg 61%
07:00 +19°C° 0 mm 2 m/S 761 mmHg 55%
08:00 +21°C° 0 mm 3 m/S 761 mmHg 49%
09:00 +22°C° 0 mm 4 m/S 761 mmHg 43%
10:00 +23°C° 0 mm 4 m/S 761 mmHg 41%
11:00 +25°C° 0 mm 4 m/S 760 mmHg 38%
12:00 +26°C° 0 mm 4 m/S 760 mmHg 35%
13:00 +26°C° 0 mm 4 m/S 760 mmHg 36%
14:00 +26°C° 0 mm 4 m/S 760 mmHg 37%
15:00 +26°C° 0 mm 4 m/S 759 mmHg 37%
16:00 +25°C° 0 mm 3 m/S 759 mmHg 43%
17:00 +25°C° 0 mm 2 m/S 759 mmHg 49%
18:00 +24°C° 0 mm 2 m/S 759 mmHg 55%
19:00 +21°C° 0 mm 2 m/S 759 mmHg 58%
20:00 +20°C° 0 mm 2 m/S 759 mmHg 60%
21:00 +19°C° 0 mm 2 m/S 759 mmHg 62%
22:00 +18°C° 0 mm 2 m/S 759 mmHg 62%
23:00 +18°C° 0 mm 2 m/S 759 mmHg 63%

14 Mai, Freitag

Zeit Temperatur Niederschläge Wind Luftdruck Luftfeuchtigkeit
00:00 +18°C° 0 mm 3 m/S 759 mmHg 63%
01:00 +17°C° 0 mm 3 m/S 759 mmHg 63%
02:00 +17°C° 0 mm 2 m/S 759 mmHg 63%
03:00 +17°C° 0 mm 2 m/S 759 mmHg 62%
04:00 +18°C° 0 mm 2 m/S 759 mmHg 63%
05:00 +18°C° 0 mm 2 m/S 759 mmHg 64%
06:00 +18°C° 0 mm 2 m/S 759 mmHg 65%
07:00 +20°C° 0 mm 3 m/S 759 mmHg 59%
08:00 +22°C° 0 mm 4 m/S 758 mmHg 53%
09:00 +23°C° 0 mm 4 m/S 758 mmHg 46%
10:00 +26°C° 0 mm 5 m/S 758 mmHg 42%
11:00 +27°C° 0 mm 5 m/S 758 mmHg 39%
12:00 +28°C° 0 mm 5 m/S 758 mmHg 35%
13:00 +28°C° 0 mm 5 m/S 758 mmHg 36%
14:00 +28°C° 0 mm 5 m/S 758 mmHg 37%
15:00 +28°C° 0 mm 5 m/S 757 mmHg 38%
16:00 +27°C° 0 mm 4 m/S 757 mmHg 44%
17:00 +26°C° 0 mm 4 m/S 757 mmHg 51%
18:00 +24°C° 0 mm 3 m/S 756 mmHg 57%
19:00 +22°C° 0 mm 3 m/S 756 mmHg 58%
20:00 +21°C° 0 mm 3 m/S 756 mmHg 60%
21:00 +19°C° 0 mm 3 m/S 756 mmHg 61%
22:00 +19°C° 0 mm 3 m/S 756 mmHg 62%
23:00 +18°C° 0 mm 3 m/S 756 mmHg 62%

15 Mai, Samstag

Zeit Temperatur Niederschläge Wind Luftdruck Luftfeuchtigkeit
00:00 +18°C° 0 mm 3 m/S 756 mmHg 62%
01:00 +17°C° 0 mm 3 m/S 756 mmHg 62%
02:00 +17°C° 0 mm 3 m/S 756 mmHg 62%
03:00 +16°C° 0 mm 3 m/S 756 mmHg 61%
04:00 +17°C° 0 mm 3 m/S 756 mmHg 62%
05:00 +17°C° 0 mm 3 m/S 756 mmHg 63%
06:00 +18°C° 0 mm 3 m/S 756 mmHg 63%
07:00 +20°C° 0 mm 4 m/S 756 mmHg 57%
08:00 +22°C° 0 mm 4 m/S 756 mmHg 50%
09:00 +25°C° 0 mm 5 m/S 756 mmHg 44%
10:00 +26°C° 0 mm 5 m/S 755 mmHg 42%
11:00 +27°C° 0 mm 6 m/S 755 mmHg 39%
12:00 +28°C° 0 mm 6 m/S 755 mmHg 37%
13:00 +28°C° 0 mm 6 m/S 755 mmHg 37%
14:00 +28°C° 0 mm 6 m/S 755 mmHg 37%
15:00 +28°C° 0 mm 6 m/S 755 mmHg 37%
16:00 +27°C° 0 mm 5 m/S 755 mmHg 42%
17:00 +26°C° 0 mm 4 m/S 755 mmHg 47%
18:00 +24°C° 0 mm 3 m/S 754 mmHg 52%
19:00 +22°C° 0 mm 3 m/S 754 mmHg 54%
20:00 +21°C° 0 mm 3 m/S 754 mmHg 56%
21:00 +19°C° 0 mm 3 m/S 754 mmHg 58%
22:00 +18°C° 0 mm 3 m/S 754 mmHg 58%
23:00 +18°C° 0 mm 3 m/S 753 mmHg 58%
Mehr zeigen

Wir brauchen deine Erlaubnis

Meteoprog und unser Service Anbieter werden persönliche Daten aufbewahren, so wie Cookies, Geräte Bezeichnung oder ähnliche Technologien von deinem Gerät und Prozess, so wie Persönliche Daten Inhalte und Werbungen, genauso wie social Media und den Verkehr zu analysieren.

  • Aufbewahrung und/oder Zugang zu deiner Geräte Informationen.

    Cookies, Geräte Bezeichnung oder andere Informationen, können aufbewahrt oder Zugang zu deinem Gerät erhalten, für den Grund, der oben angegeben wird.

  • Personalisierte Werbung und Inhalte, Messungen, Einblick in das Publikum und Produkt Entwicklung.

    Werbungen und Inhalte können personalisiert werden, basierend auf ein Profil. Mehr Daten können besser personalisierte Werbungen und Inhalte hinzufügen. Werbung und Inhalte können gezeigt und gemessen werden. Einblicke über das Publikum, welche die Werbung gesehen haben und den Inhalt, können abgeleitet werden. So wie Daten können genutzt werden, um es zu verbessern oder die Benutzer Erfahrung zu verbessern das System und die Software.

Wenn du “Ich stimme zu” klickst, erlaubst du uns, die Cookies zu benutzen die Geräte Bezeichnung, den Web oder ähnliche Technologien zu benutzen. Deine Settings, können in deinem Gerät bei deinem Browser geändert werden.

Für den bestimmten Zweck, berechtigten Interessen beruhen darauf, mehr als auf den Inhalt. Du kannst mehr darüber in unseren Privaten und Cookie Politik lesen.